RH
64 60 68 79 84 87 92 88 84 57 39 38 18 19 19 18 18 17 16 15 15 14 15 14 13 11 9 7 7 8 7 6 6
64 64 63 71 76 80 83 96 87 74 50 45 20 20 20 20 19 18 18 17 16 16 15 14 14 14 13 12 10 10 10 14 14
62 67 67 69 70 78 88 93 93 95 82 48 30 20 21 21 20 20 19 18 17 16 16 16 15 14 14 14 14 13 12 14 15
64 65 68 72 72 76 86 89 98 93 95 62 52 22 20 21 21 20 20 18 18 16 16 16 15 15 14 14 14 14 14 14 16
67 65 70 72 76 77 82 92 96 98 98 86 54 39 25 20 20 21 21 20 19 18 16 15 15 15 14 14 14 14 14 14 14
72 71 72 73 77 80 79 86 100 94 96 91 56 46 35 26 19 20 21 21 20 19 17 16 15 14 14 14 14 14 14 14 14
79 76 78 78 80 79 85 86 95 99 94 98 87 66 60 32 24 19 19 20 20 19 18 17 15 15 14 14 14 14 14 14 14
80 77 75 73 81 83 80 84 88 88 99 98 97 86 73 39 35 24 19 19 19 19 18 18 16 15 14 15 14 14 14 14 14
73 78 66 65 74 83 86 88 88 90 90 99 95 96 85 68 44 31 26 24 28 22 19 18 17 17 15 16 15 14 14 14 14
54 55 53 58 76 82 86 92 98 98 96 91 93 97 98 92 76 57 38 34 31 31 22 19 17 18 15 16 16 15 15 14 15
39 41 40 42 78 83 88 90 90 95 96 99 97 99 100 97 97 93 70 54 48 36 32 25 21 19 16 16 17 16 15 15 15
41 41 40 40 42 72 89 78 61 62 61 84 100 97 100 96 94 99 96 70 56 61 43 47 39 24 19 18 18 17 16 16 17
53 43 37 33 42 77 86 68 63 49 39 34 74 95 99 100 89 98 99 97 80 67 68 49 49 29 24 21 20 19 18 18 24
72 56 43 37 37 71 85 75 68 40 52 89 98 97 92 90 99 96 100 100 99 89 78 79 54 58 32 28 25 21 20 24 35
75 76 58 46 47 44 56 70 55 36 69 95 98 99 90 98 98 100 100 99 98 99 77 75 61 67 60 52 51 27 26 34 46
40 84 76 59 56 56 51 63 64 44 96 100 100 90 91 100 99 100 98 100 99 100 93 72 64 69 93 76 75 58 42 52 76
24 43 85 77 68 74 72 72 68 62 57 95 92 99 100 98 92 99 99 98 100 99 96 90 72 81 85 97 97 92 93 93 94
54 82 99 96 78 80 96 88 81 72 55 81 98 98 83 75 98 98 100 100 98 100 100 100 96 94 88 93 97 99 100 100 99
44 67 91 85 93 88 98 97 95 84 74 74 84 85 80 80 97 98 99 100 100 100 100 100 99 98 90 96 100 100 99 100 100
61 98 99 99 100 99 100 94 97 100 99 94 87 79 85 87 92 98 97 100 98 100 100 98 99 98 97 100 100 100 100 100 100
Wind_Speed
17 17 17 17 16 15 14 14 17 22 23 22 21 20 20 20 19 18 18 18 17 17 16 16 16 17 16 17 17 16 15 16 16
19 18 17 17 16 15 13 9 14 18 23 25 24 22 21 21 20 18 18 17 18 18 17 16 15 15 16 16 18 17 17 19 17
20 19 19 18 17 16 17 15 22 20 30 29 26 24 22 21 20 19 18 17 16 17 17 16 15 14 15 15 15 17 16 17 19
22 21 20 20 19 18 18 18 18 22 29 32 26 26 24 22 21 20 19 17 16 15 16 16 14 13 13 14 14 15 16 16 17
24 23 22 21 20 20 19 19 15 23 27 30 30 26 25 25 24 22 20 18 16 15 14 15 14 13 13 13 13 13 14 15 15
26 24 23 23 22 22 21 20 20 22 30 30 28 27 26 27 27 25 23 20 18 16 15 14 14 13 12 13 13 12 13 13 14
25 24 23 23 22 23 22 22 22 28 24 32 35 30 28 28 28 27 26 23 20 18 17 15 14 14 13 13 13 13 13 13 14
26 25 24 23 23 24 25 24 26 26 26 24 25 34 30 30 29 29 28 26 24 21 20 18 17 15 15 15 14 14 14 14 14
27 27 26 24 24 24 25 27 26 25 24 26 27 32 37 32 31 30 29 28 28 23 23 22 19 18 18 17 17 16 16 16 16
28 28 27 26 26 25 25 25 27 29 31 32 32 35 34 39 32 32 32 30 31 26 24 24 23 21 21 20 19 18 18 18 18
29 29 28 28 27 26 25 26 27 28 29 32 33 40 36 36 31 36 33 32 30 29 26 26 26 24 23 22 22 21 21 21 21
31 29 28 28 28 28 27 25 25 27 28 32 38 40 32 29 23 44 38 32 31 30 29 27 26 25 25 25 24 24 23 23 22
34 32 30 28 28 29 28 27 25 26 29 33 39 39 53 29 32 35 41 44 38 31 32 30 28 28 28 27 27 28 27 27 25
38 35 33 30 29 30 31 30 28 25 24 27 33 34 29 33 38 38 41 38 43 36 33 34 30 30 30 30 31 31 31 30 28
41 39 37 33 32 31 31 29 25 23 21 15 28 30 25 31 39 45 38 38 42 43 35 34 34 30 31 32 32 33 34 32 31
42 42 40 36 34 33 32 30 25 21 17 22 29 29 24 39 38 37 35 37 41 44 39 35 36 36 36 35 36 37 37 35 35
40 39 43 40 38 36 34 32 28 25 28 36 34 27 40 42 35 37 34 36 43 45 38 36 37 36 40 39 41 46 42 40 40
35 43 40 40 44 38 35 33 30 28 27 32 34 38 40 31 34 30 36 39 39 46 43 39 39 38 40 38 38 49 44 42 44
38 43 31 41 43 40 37 36 34 31 30 33 36 34 31 29 34 30 30 39 36 50 35 40 46 40 48 41 43 50 42 51 46
33 40 41 44 36 40 37 41 38 38 36 36 33 37 32 29 30 28 30 26 24 36 28 37 41 35 49 43 29 57 58 54 46
Wind_Direction
200 206 209 212 215 221 225 186 196 182 177 174 176 168 163 159 157 154 150 148 143 140 138 134 134 134 129 127 125 125 130 136 142
205 207 209 212 212 218 220 215 203 180 190 179 178 174 172 168 163 159 156 155 149 145 141 138 138 137 133 129 125 121 120 123 130
215 210 208 210 214 215 211 222 202 212 195 181 182 182 179 179 172 167 166 163 158 153 145 144 143 142 139 135 132 126 123 119 121
219 218 214 212 211 212 215 222 225 214 196 185 182 188 188 188 183 179 176 174 169 166 157 151 151 149 147 143 142 137 133 129 126
218 222 220 218 215 211 214 224 229 208 193 191 182 192 194 196 193 189 187 186 184 181 174 163 159 161 159 154 152 151 146 140 136
216 221 226 228 218 215 214 216 216 199 194 190 192 199 198 202 199 197 195 195 196 195 192 184 171 178 175 169 167 169 160 153 150
219 219 224 228 226 224 217 216 216 215 216 204 191 203 200 204 205 203 202 200 202 205 206 201 191 187 189 188 184 181 176 170 165
219 221 224 229 229 225 226 218 220 222 224 221 208 207 201 204 207 208 208 205 205 207 212 213 202 198 197 200 196 193 189 183 177
220 224 226 225 228 230 230 224 220 223 230 226 240 240 204 205 209 210 211 212 208 207 213 217 212 206 205 203 206 200 196 192 187
221 223 227 225 224 228 229 228 230 230 230 234 238 220 235 219 207 210 212 214 217 210 216 221 219 215 212 207 208 207 202 201 198
226 224 225 227 226 224 227 230 232 235 238 237 232 237 228 229 227 215 214 212 213 218 217 223 222 218 219 215 212 213 210 207 206
226 227 227 225 226 225 223 225 232 237 239 238 234 239 224 229 239 217 217 211 215 214 216 216 221 220 222 221 220 217 216 213 212
226 229 228 229 225 222 222 226 228 237 249 246 233 231 241 223 231 227 225 220 214 213 216 219 223 226 226 226 223 221 217 216 215
227 228 229 226 228 226 225 233 242 245 241 235 229 215 220 235 236 238 230 224 221 213 212 219 225 229 229 229 225 221 220 216 215
226 227 228 227 224 227 232 233 239 243 218 206 217 213 238 246 235 229 229 237 232 224 216 219 225 229 226 229 224 222 218 219 217
225 226 225 225 226 224 228 236 239 242 215 218 211 234 229 221 228 236 239 238 227 218 214 220 222 225 234 227 227 221 224 217 208
226 226 223 223 222 223 226 228 232 231 226 223 230 225 217 234 234 232 234 233 222 218 211 217 220 225 233 232 237 223 214 214 208
225 217 222 229 225 219 225 228 227 231 229 219 217 217 223 232 225 231 230 230 229 220 221 221 224 227 233 236 240 232 211 218 208
222 230 227 224 230 231 223 224 226 227 223 220 224 229 233 241 225 225 222 226 231 217 230 221 223 230 236 241 234 235 214 200 202
225 228 215 225 224 220 224 233 228 231 221 219 222 225 237 236 220 223 217 236 224 228 220 233 226 231 237 225 224 224 190 200 200